Theta_e
307 307 308 309 307 307 308 308 306 306 306 307 307 307 307 307 312 312 310 308 308 308 316 315 315 311 314 315 316 315 310 313 317 317 317 316 311 315 316 315 316 316 317 317 318
307 307 308 308 307 306 306 306 306 306 306 306 306 306 307 312 315 313 313 311 311 309 313 315 315 316 315 313 314 310 308 311 312 314 313 312 312 314 314 314 314 316 316 317 317
308 308 309 307 306 306 306 305 305 305 305 305 306 306 307 317 317 316 314 313 312 314 314 313 314 314 313 314 312 309 310 310 312 312 312 312 311 313 313 312 315 315 315 316 316
309 308 308 307 307 308 307 308 310 310 308 307 306 307 307 318 314 314 313 312 312 313 313 313 313 313 309 310 311 311 311 311 311 311 310 309 312 311 313 313 315 315 315 315 316
309 309 309 308 309 311 311 310 311 311 308 307 306 306 310 315 314 314 314 313 313 314 313 313 313 312 310 310 310 310 311 311 311 311 311 310 309 310 312 314 314 313 314 314 314
310 308 309 311 311 312 312 311 311 311 310 308 310 308 312 313 314 313 313 313 313 313 314 314 313 313 311 310 309 310 310 310 311 312 309 308 308 310 312 313 313 313 313 314 313
312 308 309 312 312 313 312 312 312 311 310 314 313 308 313 314 314 313 313 312 312 312 313 314 312 312 312 310 310 311 309 306 308 309 309 309 309 310 313 313 313 314 314 314 314
312 307 307 311 313 312 310 311 313 311 311 314 313 312 314 313 313 313 313 312 312 311 311 312 312 312 312 311 310 309 306 307 308 307 310 310 309 309 313 312 313 313 313 313 313
312 308 307 308 313 312 310 309 314 312 313 313 315 315 315 313 312 313 313 313 313 312 312 311 311 311 310 307 306 305 308 307 308 309 308 309 311 310 312 312 311 313 313 314 314
311 308 308 311 313 312 310 308 314 311 311 311 312 313 313 312 312 312 312 313 312 312 312 311 311 306 303 305 307 308 308 307 309 309 310 308 310 310 311 310 311 312 314 314 314
310 309 309 312 310 309 307 308 309 310 311 310 311 311 310 310 312 312 312 312 312 312 309 308 307 307 306 305 307 308 308 309 310 310 309 311 311 311 310 310 310 313 314 314 314
310 309 310 311 311 313 312 307 308 310 311 312 310 310 311 310 312 311 311 311 310 308 307 307 306 307 307 307 308 308 310 311 312 311 310 310 312 313 311 310 313 313 313 313 313
311 310 310 311 311 311 311 311 309 312 310 312 309 310 311 311 310 312 312 312 309 308 307 307 308 308 309 309 312 312 311 313 313 313 311 311 313 314 312 312 313 313 313 313 313
313 311 310 310 310 310 310 311 312 313 305 307 307 309 311 310 309 312 312 311 308 308 307 306 307 313 314 314 313 313 312 312 312 312 314 312 316 314 313 311 310 311 313 313 314
314 313 311 310 311 311 310 313 313 313 308 307 308 310 311 311 311 312 312 312 311 311 310 310 313 313 313 312 313 312 311 311 311 311 311 313 312 313 312 312 311 309 312 314 314
313 313 311 311 311 310 311 314 313 309 308 307 308 308 308 310 311 312 312 314 314 314 313 312 313 313 313 312 311 311 310 310 309 308 312 312 314 313 311 310 310 310 312 313 314
313 311 312 311 311 311 310 314 307 304 307 307 308 308 308 309 310 311 311 313 314 312 311 312 312 312 312 312 310 309 308 308 311 312 314 309 312 313 312 310 310 310 313 313 314
313 312 311 310 310 310 310 303 305 307 307 308 308 308 310 309 310 311 310 310 313 313 311 312 313 313 312 311 311 310 309 307 315 315 312 311 313 311 309 311 313 312 312 312 315
313 312 312 312 311 310 310 304 306 306 308 309 309 310 309 310 311 310 311 311 314 312 311 312 313 312 311 310 310 310 310 308 311 310 312 311 311 311 312 311 311 312 314 314 314
312 313 312 314 309 310 305 308 306 307 309 309 311 310 310 309 311 311 311 311 314 312 311 313 315 312 312 311 310 310 309 309 307 313 316 312 311 312 311 313 313 312 311 311 311
312 312 312 315 309 310 304 306 308 311 311 310 310 310 310 310 311 311 311 311 312 313 312 311 313 312 311 311 310 310 310 311 313 316 317 316 312 309 313 313 313 311 311 310 310
312 307 313 315 308 303 306 307 310 311 311 311 310 309 309 309 309 311 311 311 313 312 313 311 313 314 313 311 311 310 311 312 315 316 317 317 315 311 310 311 312 311 311 309 309
313 312 313 314 306 304 305 307 309 310 309 307 307 309 307 309 306 309 311 311 311 311 312 312 314 315 314 311 313 315 315 315 314 314 316 317 314 311 311 311 309 308 308 307 306
312 307 312 311 308 307 306 307 309 308 308 307 306 306 306 307 306 307 309 310 311 311 311 312 312 315 317 315 313 315 314 314 314 316 315 315 314 312 308 308 307 305 305 305 305
312 308 308 305 307 308 306 306 308 308 308 307 306 307 307 300 305 307 309 309 309 309 311 312 315 314 314 314 314 314 314 314 315 314 315 313 308 308 307 304 304 303 303 303 303
310 309 309 309 308 305 306 306 308 308 307 306 306 306 305 303 305 309 308 308 307 307 311 311 313 314 316 314 314 315 313 312 311 309 308 308 307 306 304 302 302 302 302 302 302
309 308 309 307 305 306 306 307 309 309 309 307 306 305 304 306 309 308 309 309 308 308 311 312 312 312 315 312 310 309 305 307 307 307 308 308 307 305 303 302 301 300 300 301 301
Wind_Speed
29 24 18 14 12 11 8 5 4 4 6 6 6 6 7 9 5 7 12 8 7 6 7 7 7 5 5 4 5 4 4 1 2 4 4 7 7 10 12 13 15 15 14 18 18
32 26 19 15 13 12 10 8 6 5 6 7 8 8 8 9 9 12 10 10 11 10 8 6 8 6 4 3 2 4 4 8 4 3 3 14 9 18 5 11 4 10 15 10 13
34 27 21 16 15 13 11 9 9 8 8 7 8 7 7 7 10 6 8 7 8 13 12 13 8 6 5 3 4 2 4 3 3 9 9 6 14 11 3 2 9 9 17 17 16
35 26 22 18 16 15 13 11 11 10 9 6 5 5 5 6 4 6 9 11 11 12 11 13 15 4 4 3 4 2 4 1 7 14 9 4 12 9 11 7 16 15 18 19 16
34 23 21 20 18 16 15 13 13 13 11 9 8 6 7 11 8 12 12 12 12 12 15 10 14 6 3 1 5 3 1 7 20 16 19 18 11 14 14 22 20 15 16 16 17
35 20 18 18 16 17 16 14 17 11 9 9 8 5 8 10 9 7 7 7 6 6 8 10 6 5 4 2 2 3 6 15 14 20 14 7 9 6 10 15 18 14 13 16 14
34 19 16 15 13 15 16 13 15 8 10 9 9 12 14 8 4 3 3 5 7 4 5 5 6 4 4 4 2 6 5 7 3 2 6 1 4 5 15 23 18 21 22 20 22
34 19 17 12 9 12 17 12 7 9 13 8 11 12 8 7 9 5 3 2 6 9 4 4 6 7 2 3 6 5 4 4 5 7 6 1 7 4 26 15 24 26 23 27 28
33 19 20 12 7 12 17 12 6 11 12 11 11 9 4 6 11 7 6 6 8 8 8 8 9 3 4 4 5 6 6 5 7 3 5 3 15 8 24 27 25 25 29 30 32
30 20 22 13 10 13 16 8 5 13 7 8 13 5 9 9 12 10 6 6 9 11 10 3 5 4 4 5 5 7 7 7 10 5 7 10 20 13 24 21 22 27 29 33 37
25 23 20 13 18 17 14 3 2 3 13 7 5 6 14 15 3 16 7 9 11 10 2 2 4 5 11 6 7 4 5 11 11 10 6 16 18 21 16 17 17 28 31 35 39
22 20 20 9 19 19 18 10 7 3 3 13 21 14 15 17 6 20 14 5 2 6 3 3 5 11 5 6 5 6 8 9 15 8 4 11 24 26 11 11 23 24 27 30 35
21 20 20 9 11 18 18 14 5 3 3 6 10 19 14 14 4 16 19 11 3 3 5 6 8 3 2 4 6 4 7 13 16 13 6 6 19 19 4 15 21 25 27 27 31
23 18 19 19 6 20 19 11 1 2 4 9 8 8 13 11 3 13 22 5 2 3 3 5 4 1 3 4 4 6 5 6 11 7 5 4 10 33 7 6 4 15 24 29 26
28 11 20 18 14 18 22 10 4 2 3 8 5 5 12 14 9 8 19 7 1 5 1 7 3 6 7 7 4 6 6 8 7 14 7 6 5 4 11 11 12 8 15 16 21
24 10 18 18 16 17 16 4 5 5 1 5 6 6 6 6 6 10 11 9 1 3 4 5 8 3 4 3 2 5 5 12 4 1 7 14 12 4 5 6 5 5 13 17 15
19 10 18 15 19 16 14 3 5 6 3 6 3 5 4 5 7 6 6 6 4 6 6 7 5 3 5 5 6 8 5 4 5 2 6 5 5 16 10 7 7 11 25 27 14
19 5 18 14 15 19 12 5 7 3 3 3 3 5 3 6 2 5 5 4 4 3 1 4 7 5 2 3 6 6 5 3 5 4 6 10 7 6 7 12 25 21 21 15 6
22 7 14 17 17 17 1 6 5 4 3 2 6 1 3 2 2 5 3 3 4 3 3 3 6 7 16 12 6 1 4 4 4 9 7 5 6 8 17 17 8 8 8 13 15
23 4 13 23 11 8 6 3 3 3 4 2 0 2 3 4 2 3 3 3 3 7 2 2 9 6 3 4 9 7 3 3 2 5 7 5 6 8 7 5 5 7 9 18 23
16 3 17 19 7 11 4 2 3 5 7 4 4 4 4 3 2 3 4 4 5 5 9 2 5 6 5 5 5 3 3 3 3 4 4 8 5 6 6 4 3 5 12 18 26
14 3 17 17 8 4 2 4 5 4 6 3 1 4 4 2 4 4 5 6 6 3 4 5 3 7 14 21 11 10 10 9 5 5 5 6 18 13 11 2 9 16 22 26 30
15 7 11 13 4 3 6 4 3 4 4 4 4 2 3 2 4 5 5 7 14 5 4 4 3 6 7 4 2 3 4 7 12 13 17 12 10 7 16 17 23 25 30 27 30
9 4 6 11 7 3 5 3 4 7 3 6 4 2 5 4 6 7 10 5 1 11 20 14 5 9 10 15 11 21 22 17 14 7 17 14 25 13 18 21 17 22 28 31 34
9 3 3 4 3 4 2 2 3 5 7 9 4 2 2 4 6 6 4 6 9 11 1 6 5 9 15 21 21 24 25 22 18 19 13 20 18 22 20 12 19 29 33 35 35
6 6 5 11 9 3 2 3 1 2 3 5 4 7 4 6 10 21 10 5 7 4 2 1 4 5 14 18 18 22 19 15 12 5 10 15 26 16 22 24 29 34 35 37 40
5 5 7 5 3 2 3 3 1 9 6 11 8 11 9 11 17 28 31 29 16 6 3 3 3 3 7 5 14 6 2 1 4 8 12 18 24 11 20 24 29 37 38 39 42
Wind_Direction
13 16 19 22 17 18 16 19 359 336 336 345 346 340 353 0 38 79 53 61 56 70 80 82 59 119 121 110 100 109 67 163 230 182 259 311 20 327 323 289 312 320 300 322 331
11 13 23 30 36 32 24 25 18 1 350 348 350 351 1 28 95 85 50 46 50 77 70 83 61 91 76 71 86 85 103 207 221 279 288 323 326 314 309 301 271 302 319 318 329
12 14 24 34 34 33 38 40 34 18 360 355 356 354 4 89 101 50 30 32 64 61 57 44 54 90 74 49 28 88 175 209 307 342 341 294 314 322 272 314 318 314 312 314 313
10 13 19 29 31 30 36 46 41 28 8 3 26 29 58 113 97 56 60 66 83 54 47 56 53 60 69 50 18 12 272 100 315 323 321 280 301 302 269 248 311 304 302 304 303
10 14 17 17 22 29 30 26 16 19 26 23 23 42 99 90 98 103 90 81 72 55 46 44 42 45 51 341 347 147 267 300 315 312 299 291 252 260 267 289 297 305 312 312 306
10 14 17 16 17 17 16 18 353 1 23 34 40 69 111 83 109 97 72 43 28 20 23 34 28 28 105 324 127 292 296 297 307 293 290 258 275 314 286 296 301 314 327 321 324
9 15 17 17 21 14 6 358 357 50 16 20 43 95 94 90 117 21 9 41 36 29 5 22 2 9 331 312 308 285 306 318 267 274 279 280 313 246 306 306 299 311 311 312 312
7 12 10 13 24 8 3 2 41 56 25 60 74 90 84 79 45 1 299 268 339 356 9 356 330 321 316 296 346 354 60 18 303 325 285 262 281 265 306 295 301 303 301 305 306
7 12 3 7 27 6 6 8 66 28 64 71 67 88 65 53 16 4 296 318 340 353 4 335 337 17 2 48 2 7 284 287 308 238 275 194 293 275 289 287 288 291 298 300 302
11 13 8 37 25 5 359 22 83 42 57 49 44 57 27 350 357 9 340 295 305 313 329 358 24 37 25 57 291 290 299 277 281 285 290 288 284 276 278 279 274 283 289 293 294
17 11 15 36 20 14 20 85 32 44 41 57 43 51 15 6 21 17 343 289 274 293 259 359 54 261 256 225 220 254 265 270 279 283 279 291 280 283 273 262 253 265 273 285 290
15 17 16 38 35 30 35 69 39 12 7 62 55 59 18 356 343 20 359 332 240 236 116 6 235 245 235 265 230 250 272 283 287 266 245 284 288 283 271 241 251 260 270 277 288
11 23 25 30 23 25 27 38 44 19 90 42 35 32 15 344 46 13 13 336 262 295 231 211 248 23 209 287 296 279 272 293 288 306 241 264 280 292 231 248 261 265 279 285 283
5 22 19 19 13 7 6 349 30 78 75 336 357 16 6 341 136 23 8 339 321 263 302 240 287 162 298 256 256 287 255 294 295 328 296 91 290 292 273 275 259 275 278 288 297
358 3 7 9 359 358 351 342 171 162 54 323 338 347 356 33 293 351 2 341 266 282 230 258 294 292 280 251 176 243 317 286 286 280 290 197 245 94 328 291 276 253 272 287 311
1 16 1 2 1 353 360 50 134 46 5 334 337 347 2 348 347 329 354 19 15 356 4 261 286 246 240 344 129 339 339 307 287 207 256 250 217 325 226 225 280 282 277 292 296
6 22 8 0 1 355 354 167 40 87 351 319 299 346 331 320 328 8 358 17 42 15 346 325 321 338 40 1 333 29 31 318 332 333 243 341 300 257 277 281 234 255 276 289 275
358 31 22 14 348 344 344 60 73 246 284 290 310 326 295 357 327 332 359 356 20 92 326 355 328 7 88 129 240 295 171 175 280 261 269 329 260 250 239 261 267 267 275 285 229
352 237 359 359 340 344 345 56 174 207 243 268 328 329 292 300 258 349 282 224 194 177 116 318 254 292 294 290 157 266 221 211 264 259 270 233 269 312 275 273 340 31 41 8 351
350 323 354 350 358 349 74 146 199 216 267 145 262 193 284 290 335 349 298 214 214 201 200 219 286 254 258 287 238 187 209 355 332 288 275 253 253 252 348 3 357 358 356 342 333
355 3 353 356 21 52 98 233 287 293 336 179 220 265 257 302 261 267 259 274 199 201 197 206 215 277 5 231 191 185 252 223 254 236 268 298 270 196 202 222 329 288 306 316 316
360 16 358 11 47 34 58 320 322 317 350 300 196 221 241 299 280 257 239 218 200 187 241 206 255 272 277 270 269 240 254 234 243 246 245 271 281 268 283 260 345 302 314 314 308
347 319 3 16 73 354 318 311 279 336 321 9 312 263 50 265 337 232 247 270 268 182 225 191 245 298 304 26 8 202 194 230 242 258 262 269 261 316 328 332 328 309 301 298 297
355 358 357 49 74 81 355 296 310 326 278 348 281 28 9 295 222 273 277 286 302 265 280 273 210 228 259 270 285 288 284 274 258 264 284 265 290 314 307 301 307 315 306 297 296
11 12 11 316 350 341 246 294 315 342 344 325 314 96 9 293 291 251 256 292 288 283 254 170 255 239 250 261 271 273 277 281 273 271 274 298 297 297 303 321 306 303 299 294 287
22 357 340 300 307 325 202 227 335 325 247 292 240 291 251 221 233 287 293 301 243 312 249 175 265 264 271 264 265 273 275 277 280 290 281 287 288 305 317 311 305 298 290 287 287
3 330 324 294 331 1 248 290 331 341 278 238 286 311 296 269 279 278 274 271 244 217 219 249 266 286 277 334 307 278 219 144 290 285 296 291 300 331 314 311 302 298 293 286 283